User: anonymous   Login
Location: Jackson
(35.6140°N, 88.8140°W)
Time: 23:02:55
(UTC-06:00)
Language:

FO-29 - Orbit

View from above orbital plane
View from above orbital plane
View from above satellite
View from above satellite

Ground track
Ground track

The orbit data is extracted from the following two-line orbital elements,

1 24278U 96046B   19347.38626237 -.00000057  00000-0 -24701-4 0  9991
2 24278  98.5633 116.9282 0350967 139.3034 223.4905 13.53095121151834
Epoch (UTC): 13 December 2019 09:16:13
Eccentricity: 0.0350967
inclination: 98.5633°
perigee height: 800 km
apogee height: 1322 km
right ascension of ascending node: 116.9282°
argument of perigee: 139.3034°
revolutions per day: 13.53095121
mean anomaly at epoch: 223.4905°
orbit number at epoch: 15183

The dashed part of the orbit path shows where the satellite is in the earth's shadow,  

DLR